WBANNO,USDM_WEEK,LONGITUDE,LATITUDE,SMVWC_5_CM_MEAN,SMANOM_5_CM_MEAN,SMPERC_5_CM_30COUNTS,SMPERC_5_CM_70COUNTS,SMVWC_10_CM_MEAN,SMANOM_10_CM_MEAN,SMPERC_10_CM_30COUNTS,SMPERC_10_CM_70COUNTS,SMVWC_20_CM_MEAN,SMANOM_20_CM_MEAN,SMPERC_20_CM_30COUNTS,SMPERC_20_CM_70COUNTS,SMVWC_50_CM_MEAN,SMANOM_50_CM_MEAN,SMPERC_50_CM_30COUNTS,SMPERC_50_CM_70COUNTS,SMVWC_100_CM_MEAN,SMANOM_100_CM_MEAN,SMPERC_100_CM_30COUNTS,SMPERC_100_CM_70COUNTS,SMVWC_TOP_CM_MEAN,SMANOM_TOP_CM_MEAN,SMPERC_TOP_CM_30COUNTS,SMPERC_TOP_CM_70COUNTS,SMVWC_COLUMN_CM_MEAN,SMANOM_COLUMN_CM_MEAN,SMPERC_COLUMN_CM_30COUNTS,SMPERC_COLUMN_CM_70COUNTS
23803,20090624,-89.43,34.82,,,,,,,,,,,,,,,,,,,,,,,,,,,,
23803,20090625,-89.43,34.82,,,,,,,,,,,,,,,,,,,,,,,,,,,,
23803,20090626,-89.43,34.82,,,,,,,,,,,,,,,,,,,,,,,,,,,,
23803,20090627,-89.43,34.82,,,,,,,,,,,,,,,,,,,,,,,,,,,,
23803,20090628,-89.43,34.82,,,,,,,,,,,,,,,,,,,,,,,,,,,,
23803,20090629,-89.43,34.82,0.23,-0.35,0.133,0,0.299,-0.17,0,0,0.281,-0.24,0,0,0.352,-0.74,1,0,0.411,-0.85,1,0,0.265,-0.29,0,0,0.315,-0.32,0,0
23803,20090630,-89.43,34.82,0.225,-0.38,0.264,0,0.295,-0.2,0,0,0.278,-0.26,0,0,0.352,-0.74,1,0,0.412,-0.8,1,0,0.26,-0.31,0,0,0.312,-0.34,0,0
23803,20090701,-89.43,34.82,0.217,-0.42,0.393,0,0.288,-0.24,0,0,0.273,-0.29,0,0,0.352,-0.74,1,0,0.415,-0.67,1,0,0.253,-0.35,0.101,0,0.309,-0.37,0.083,0
23803,20090702,-89.43,34.82,0.207,-0.46,0.536,0,0.28,-0.29,0,0,0.267,-0.32,0,0,0.352,-0.74,1,0,0.417,-0.57,1,0,0.244,-0.4,0.244,0,0.305,-0.4,0.226,0
23803,20090703,-89.43,34.82,0.197,-0.51,0.679,0,0.272,-0.35,0.101,0,0.259,-0.37,0.143,0,0.351,-0.75,1,0,0.419,-0.48,1,0,0.234,-0.44,0.387,0,0.3,-0.44,0.369,0
23803,20090704,-89.43,34.82,0.188,-0.55,0.821,0,0.263,-0.4,0.244,0,0.251,-0.42,0.286,0,0.35,-0.75,1,0,0.42,-0.42,0.935,0,0.226,-0.49,0.53,0,0.294,-0.49,0.512,0
23803,20090705,-89.43,34.82,0.18,-0.58,0.958,0,0.255,-0.45,0.381,0,0.243,-0.46,0.429,0,0.349,-0.75,1,0,0.421,-0.36,0.798,0,0.218,-0.53,0.667,0,0.29,-0.52,0.655,0
23803,20090706,-89.43,34.82,0.188,-0.52,0.851,0,0.257,-0.41,0.381,0,0.238,-0.48,0.429,0,0.348,-0.74,1,0,0.422,-0.31,0.655,0,0.222,-0.48,0.667,0,0.291,-0.5,0.655,0
23803,20090707,-89.43,34.82,0.196,-0.46,0.708,0,0.261,-0.37,0.381,0,0.235,-0.48,0.429,0,0.348,-0.72,1,0,0.422,-0.25,0.512,0,0.229,-0.42,0.667,0,0.292,-0.45,0.655,0
23803,20090708,-89.43,34.82,0.203,-0.4,0.565,0,0.265,-0.32,0.381,0,0.232,-0.48,0.429,0,0.347,-0.7,1,0,0.423,-0.21,0.369,0,0.234,-0.37,0.565,0,0.294,-0.42,0.571,0
23803,20090709,-89.43,34.82,0.209,-0.36,0.423,0,0.268,-0.29,0.381,0,0.231,-0.47,0.429,0,0.346,-0.69,1,0,0.424,-0.17,0.226,0,0.238,-0.33,0.423,0,0.295,-0.38,0.429,0
23803,20090710,-89.43,34.82,0.214,-0.32,0.28,0,0.27,-0.26,0.28,0,0.229,-0.46,0.286,0,0.345,-0.67,1,0,0.424,-0.14,0.083,0,0.242,-0.3,0.28,0,0.296,-0.34,0.286,0
23803,20090711,-89.43,34.82,0.218,-0.29,0.208,0,0.271,-0.23,0.137,0,0.229,-0.44,0.143,0,0.345,-0.65,1,0,0.424,-0.12,0.006,0,0.245,-0.27,0.137,0,0.297,-0.31,0.143,0
23803,20090712,-89.43,34.82,0.222,-0.27,0.214,0,0.273,-0.21,0,0,0.228,-0.43,0.083,0,0.344,-0.64,1,0,0.424,-0.1,0,0,0.247,-0.25,0.089,0,0.298,-0.28,0,0
23803,20090713,-89.43,34.82,0.211,-0.34,0.339,0,0.265,-0.27,0,0,0.225,-0.44,0.22,0,0.343,-0.63,1,0,0.424,-0.09,0,0,0.238,-0.32,0.214,0,0.294,-0.31,0,0
23803,20090714,-89.43,34.82,0.217,-0.31,0.339,0,0.269,-0.23,0,0,0.233,-0.37,0.22,0,0.343,-0.62,0.994,0,0.424,-0.08,0,0,0.243,-0.29,0.214,0,0.297,-0.27,0,0
23803,20090715,-89.43,34.82,0.222,-0.29,0.339,0,0.273,-0.2,0,0,0.24,-0.32,0.22,0,0.343,-0.61,0.994,0,0.424,-0.07,0,0,0.247,-0.26,0.214,0,0.3,-0.23,0,0
23803,20090716,-89.43,34.82,0.226,-0.27,0.339,0,0.277,-0.17,0,0,0.246,-0.27,0.22,0,0.343,-0.6,0.994,0,0.424,-0.06,0,0,0.251,-0.23,0.214,0,0.303,-0.2,0,0
23803,20090717,-89.43,34.82,0.258,-0.08,0.339,0.137,0.303,0.04,0,0.137,0.274,-0.07,0.22,0.137,0.359,-0.32,0.857,0.137,0.425,-0.01,0,0,0.28,-0.03,0.214,0.137,0.324,0.02,0,0.137
23803,20090718,-89.43,34.82,0.282,0.06,0.268,0.28,0.322,0.2,0,0.28,0.298,0.1,0.22,0.28,0.373,-0.1,0.714,0.28,0.426,0.04,0,0,0.302,0.13,0.214,0.28,0.34,0.18,0,0.28
23803,20090719,-89.43,34.82,0.303,0.19,0.125,0.321,0.34,0.35,0,0.423,0.32,0.25,0.137,0.423,0.381,0.05,0.571,0.333,0.427,0.08,0,0,0.322,0.27,0.125,0.423,0.354,0.33,0,0.423
23803,20090720,-89.43,34.82,0.321,0.3,0,0.321,0.356,0.48,0,0.565,0.34,0.39,0,0.53,0.387,0.15,0.429,0.333,0.428,0.12,0,0,0.338,0.39,0,0.464,0.366,0.45,0,0.47
23803,20090721,-89.43,34.82,0.32,0.29,0,0.321,0.359,0.51,0,0.649,0.346,0.44,0,0.571,0.391,0.23,0.292,0.333,0.429,0.16,0,0,0.339,0.4,0,0.464,0.369,0.47,0,0.47
23803,20090722,-89.43,34.82,0.34,0.43,0,0.423,0.374,0.65,0,0.792,0.362,0.55,0,0.673,0.404,0.44,0.149,0.417,0.43,0.19,0,0,0.357,0.54,0,0.565,0.382,0.61,0,0.571
23803,20090723,-89.43,34.82,0.368,0.61,0,0.565,0.396,0.85,0,0.935,0.386,0.72,0,0.815,0.424,0.77,0.006,0.56,0.431,0.23,0,0,0.382,0.73,0,0.708,0.401,0.8,0,0.714
23803,20090724,-89.43,34.82,0.361,0.58,0,0.571,0.39,0.82,0,0.94,0.382,0.7,0,0.821,0.424,0.79,0,0.565,0.431,0.24,0,0,0.376,0.7,0,0.714,0.398,0.77,0,0.72
23803,20090725,-89.43,34.82,0.361,0.59,0,0.571,0.389,0.83,0,0.94,0.38,0.7,0,0.821,0.424,0.8,0,0.565,0.431,0.23,0,0,0.375,0.71,0,0.714,0.397,0.77,0,0.72
23803,20090726,-89.43,34.82,0.361,0.6,0,0.673,0.39,0.85,0,0.94,0.38,0.71,0,0.821,0.425,0.83,0,0.655,0.431,0.24,0,0,0.375,0.72,0,0.714,0.397,0.78,0,0.72
23803,20090727,-89.43,34.82,0.371,0.68,0,0.815,0.396,0.92,0,0.94,0.386,0.76,0,0.857,0.436,1.03,0,0.798,0.432,0.26,0,0,0.383,0.8,0,0.815,0.404,0.86,0,0.815
23803,20090728,-89.43,34.82,0.38,0.76,0,0.958,0.402,0.98,0,1,0.392,0.81,0,0.958,0.444,1.19,0,0.94,0.432,0.29,0,0,0.391,0.87,0,0.958,0.41,0.93,0,0.958
23803,20090729,-89.43,34.82,0.387,0.82,0,1,0.407,1.04,0,1,0.395,0.85,0,1,0.45,1.31,0,1,0.433,0.31,0,0.03,0.397,0.93,0,1,0.414,0.99,0,1
23803,20090730,-89.43,34.82,0.383,0.81,0,1,0.404,1.03,0,1,0.393,0.85,0,1,0.45,1.33,0,1,0.433,0.34,0,0.042,0.394,0.92,0,1,0.413,0.99,0,1
23803,20090731,-89.43,34.82,0.394,0.91,0,1,0.412,1.11,0,1,0.398,0.9,0,1,0.449,1.34,0,1,0.433,0.36,0,0.065,0.403,1.01,0,1,0.418,1.05,0,1
23803,20090801,-89.43,34.82,0.404,1,0,1,0.421,1.18,0,1,0.405,0.96,0,1,0.453,1.42,0,1,0.434,0.39,0,0.119,0.412,1.09,0,1,0.423,1.12,0,1
23803,20090802,-89.43,34.82,0.412,1.08,0,1,0.425,1.24,0,1,0.41,1.02,0,1,0.458,1.51,0,1,0.435,0.42,0,0.226,0.419,1.16,0,1,0.428,1.18,0,1
23803,20090803,-89.43,34.82,0.411,1.1,0,1,0.425,1.24,0,1,0.409,1.03,0,1,0.455,1.46,0,1,0.435,0.43,0,0.256,0.418,1.18,0,1,0.427,1.19,0,1
23803,20090804,-89.43,34.82,0.412,1.14,0,1,0.426,1.26,0,1,0.41,1.05,0,1,0.454,1.45,0,1,0.435,0.44,0,0.28,0.419,1.21,0,1,0.427,1.2,0,1
23803,20090805,-89.43,34.82,0.396,1.07,0,1,0.415,1.18,0,1,0.403,1.02,0,1,0.445,1.31,0,1,0.435,0.45,0,0.286,0.406,1.14,0,1,0.419,1.13,0,1
23803,20090806,-89.43,34.82,0.392,1.07,0,1,0.413,1.17,0,1,0.4,1.02,0,1,0.441,1.26,0,1,0.435,0.45,0,0.286,0.402,1.14,0,1,0.416,1.11,0,1
23803,20090807,-89.43,34.82,0.377,1,0,1,0.404,1.11,0,1,0.393,0.98,0,1,0.438,1.21,0,1,0.434,0.45,0,0.298,0.391,1.07,0,1,0.409,1.05,0,1
23803,20090808,-89.43,34.82,0.367,0.95,0,1,0.396,1.06,0,1,0.385,0.95,0,1,0.432,1.12,0,1,0.435,0.47,0,0.387,0.381,1.03,0,1,0.403,1,0,1
23803,20090809,-89.43,34.82,0.36,0.92,0,1,0.392,1.05,0,1,0.38,0.93,0,1,0.426,1.04,0,1,0.435,0.48,0,0.423,0.376,1.01,0,1,0.399,0.97,0,1
23803,20090810,-89.43,34.82,0.354,0.89,0,1,0.388,1.04,0,1,0.377,0.93,0,1,0.42,0.95,0,1,0.434,0.48,0,0.494,0.371,1,0,1,0.395,0.94,0,1
23803,20090811,-89.43,34.82,0.347,0.86,0,1,0.385,1.04,0,1,0.373,0.92,0,1,0.414,0.87,0,1,0.434,0.49,0,0.577,0.366,0.99,0,1,0.391,0.92,0,1
23803,20090812,-89.43,34.82,0.342,0.84,0,1,0.381,1.04,0,1,0.37,0.92,0,1,0.411,0.83,0,1,0.434,0.5,0,0.631,0.362,0.98,0,1,0.388,0.91,0,1
23803,20090813,-89.43,34.82,0.329,0.77,0,1,0.372,1,0,1,0.363,0.88,0,1,0.4,0.67,0,1,0.434,0.52,0,0.744,0.351,0.93,0,1,0.38,0.85,0,1
23803,20090814,-89.43,34.82,0.318,0.71,0,1,0.366,0.99,0,1,0.357,0.86,0,1,0.392,0.55,0,1,0.434,0.53,0,0.845,0.342,0.89,0,1,0.373,0.81,0,1
23803,20090815,-89.43,34.82,0.306,0.64,0,0.94,0.358,0.96,0,1,0.351,0.84,0,1,0.386,0.48,0,1,0.434,0.52,0,0.804,0.332,0.85,0,1,0.367,0.78,0,1
23803,20090816,-89.43,34.82,0.293,0.57,0,0.798,0.349,0.93,0,1,0.345,0.82,0,1,0.383,0.44,0,1,0.434,0.53,0,0.804,0.321,0.8,0,1,0.361,0.74,0,1
23803,20090817,-89.43,34.82,0.279,0.49,0,0.655,0.339,0.88,0,1,0.339,0.8,0,1,0.38,0.42,0,1,0.434,0.54,0,0.845,0.309,0.73,0,0.982,0.354,0.7,0,1
23803,20090818,-89.43,34.82,0.266,0.4,0,0.512,0.329,0.82,0,1,0.332,0.78,0,1,0.378,0.41,0,1,0.433,0.54,0,0.863,0.297,0.65,0,0.845,0.348,0.66,0,1
23803,20090819,-89.43,34.82,0.251,0.31,0,0.369,0.318,0.75,0,1,0.325,0.74,0,1,0.376,0.4,0,1,0.433,0.55,0,0.917,0.284,0.56,0,0.702,0.34,0.61,0,0.94
23803,20090820,-89.43,34.82,0.236,0.21,0,0.226,0.306,0.67,0,1,0.317,0.7,0,1,0.374,0.39,0,1,0.433,0.55,0,0.935,0.271,0.46,0,0.56,0.333,0.54,0,0.798
23803,20090821,-89.43,34.82,0.224,0.12,0,0.083,0.296,0.6,0,0.982,0.309,0.66,0,1,0.372,0.38,0,1,0.433,0.54,0,0.929,0.26,0.38,0,0.435,0.327,0.49,0,0.679
23803,20090822,-89.43,34.82,0.218,0.09,0,0,0.293,0.59,0,0.982,0.302,0.63,0,1,0.37,0.37,0,1,0.432,0.54,0,0.911,0.256,0.36,0,0.435,0.323,0.46,0,0.679
23803,20090823,-89.43,34.82,0.214,0.06,0,0,0.289,0.58,0,0.982,0.296,0.59,0,1,0.369,0.36,0,1,0.432,0.52,0,0.893,0.252,0.33,0,0.363,0.32,0.44,0,0.679
23803,20090824,-89.43,34.82,0.211,0.04,0,0,0.286,0.56,0,0.982,0.291,0.57,0,1,0.367,0.35,0,1,0.431,0.51,0,0.875,0.248,0.31,0,0.238,0.317,0.42,0,0.661
23803,20090825,-89.43,34.82,0.208,0.02,0,0,0.283,0.54,0,0.982,0.286,0.54,0,1,0.366,0.34,0,0.946,0.431,0.51,0,0.887,0.245,0.3,0,0.232,0.315,0.4,0,0.595
23803,20090826,-89.43,34.82,0.205,0.01,0,0,0.28,0.53,0,0.917,0.281,0.52,0,1,0.364,0.32,0,0.815,0.43,0.49,0,0.798,0.243,0.28,0,0.232,0.312,0.38,0,0.512
23803,20090827,-89.43,34.82,0.203,0,0,0,0.277,0.51,0,0.774,0.276,0.49,0,0.935,0.363,0.31,0,0.679,0.43,0.48,0,0.756,0.24,0.26,0,0.232,0.31,0.37,0,0.512
23803,20090828,-89.43,34.82,0.199,-0.02,0,0,0.274,0.48,0,0.649,0.27,0.46,0,0.792,0.362,0.3,0,0.536,0.429,0.47,0,0.714,0.237,0.24,0,0.214,0.307,0.34,0,0.488
23803,20090829,-89.43,34.82,0.191,-0.08,0,0,0.265,0.4,0,0.506,0.263,0.42,0,0.649,0.36,0.28,0,0.393,0.429,0.47,0,0.714,0.228,0.16,0,0.071,0.301,0.28,0,0.345
23803,20090830,-89.43,34.82,0.182,-0.14,0,0,0.257,0.33,0,0.363,0.255,0.36,0,0.506,0.359,0.26,0,0.25,0.429,0.46,0,0.661,0.219,0.09,0,0,0.296,0.23,0,0.202
23803,20090831,-89.43,34.82,0.174,-0.19,0,0,0.25,0.26,0,0.22,0.246,0.31,0,0.363,0.358,0.24,0,0.107,0.428,0.45,0,0.571,0.212,0.02,0,0,0.291,0.17,0,0.077
23803,20090901,-89.43,34.82,0.167,-0.23,0,0,0.243,0.2,0,0.077,0.237,0.24,0,0.22,0.356,0.22,0,0.018,0.427,0.43,0,0.524,0.205,-0.04,0,0,0.286,0.11,0,0
23803,20090902,-89.43,34.82,0.16,-0.28,0.012,0,0.237,0.15,0,0,0.229,0.18,0,0.077,0.355,0.21,0,0.006,0.427,0.43,0,0.488,0.199,-0.1,0,0,0.282,0.06,0,0
23803,20090903,-89.43,34.82,0.154,-0.32,0.083,0,0.232,0.09,0,0,0.221,0.12,0,0,0.353,0.18,0,0,0.427,0.42,0,0.446,0.193,-0.14,0,0,0.277,0,0,0
23803,20090904,-89.43,34.82,0.149,-0.35,0.22,0,0.227,0.04,0,0,0.214,0.06,0,0,0.352,0.16,0,0,0.426,0.41,0,0.357,0.188,-0.19,0,0,0.273,-0.04,0,0
23803,20090905,-89.43,34.82,0.145,-0.38,0.363,0,0.222,-0.01,0,0,0.207,0,0,0,0.35,0.14,0,0,0.426,0.4,0,0.304,0.183,-0.23,0,0,0.27,-0.09,0,0
23803,20090906,-89.43,34.82,0.141,-0.41,0.506,0,0.217,-0.06,0,0,0.2,-0.06,0,0,0.348,0.11,0,0,0.425,0.39,0,0.244,0.179,-0.27,0,0,0.266,-0.14,0,0
23803,20090907,-89.43,34.82,0.137,-0.44,0.649,0,0.213,-0.11,0,0,0.194,-0.12,0,0,0.347,0.09,0,0,0.425,0.39,0,0.22,0.175,-0.31,0.03,0,0.263,-0.19,0,0
23803,20090908,-89.43,34.82,0.134,-0.47,0.792,0,0.209,-0.16,0,0,0.188,-0.18,0.03,0,0.346,0.07,0,0,0.425,0.39,0,0.161,0.171,-0.35,0.161,0,0.26,-0.23,0,0
23803,20090909,-89.43,34.82,0.131,-0.5,0.923,0,0.205,-0.21,0,0,0.183,-0.23,0.167,0,0.344,0.04,0,0,0.425,0.38,0,0.143,0.168,-0.39,0.304,0,0.258,-0.27,0,0
23803,20090910,-89.43,34.82,0.138,-0.47,0.887,0,0.206,-0.21,0,0,0.181,-0.25,0.208,0,0.343,0.02,0,0,0.424,0.37,0,0.083,0.172,-0.37,0.339,0,0.258,-0.27,0,0
23803,20090911,-89.43,34.82,0.145,-0.43,0.75,0,0.21,-0.19,0,0,0.18,-0.26,0.208,0,0.342,0.01,0,0,0.424,0.37,0,0.089,0.177,-0.33,0.339,0,0.26,-0.26,0,0
23803,20090912,-89.43,34.82,0.155,-0.37,0.607,0,0.215,-0.15,0,0,0.181,-0.27,0.208,0,0.341,-0.01,0,0,0.424,0.36,0,0.06,0.185,-0.28,0.339,0,0.263,-0.23,0,0
23803,20090913,-89.43,34.82,0.164,-0.32,0.464,0,0.221,-0.1,0,0,0.182,-0.26,0.208,0,0.34,-0.02,0,0,0.423,0.35,0,0.048,0.193,-0.23,0.339,0,0.266,-0.19,0,0
23803,20090914,-89.43,34.82,0.174,-0.26,0.321,0,0.228,-0.05,0,0,0.184,-0.24,0.208,0,0.34,-0.03,0,0,0.423,0.35,0,0.036,0.201,-0.17,0.31,0,0.27,-0.15,0,0
23803,20090915,-89.43,34.82,0.19,-0.15,0.179,0,0.241,0.06,0,0.107,0.189,-0.2,0.179,0,0.339,-0.05,0,0,0.422,0.33,0,0.006,0.216,-0.07,0.179,0,0.276,-0.08,0,0
23803,20090916,-89.43,34.82,0.214,0.01,0.036,0.077,0.261,0.22,0,0.25,0.201,-0.1,0.042,0.036,0.339,-0.06,0,0,0.422,0.33,0,0.006,0.237,0.1,0.036,0.137,0.287,0.05,0,0.071
23803,20090917,-89.43,34.82,0.237,0.16,0,0.22,0.283,0.38,0,0.393,0.226,0.08,0,0.179,0.339,-0.05,0,0,0.422,0.32,0,0.006,0.26,0.26,0,0.28,0.301,0.21,0,0.214
23803,20090918,-89.43,34.82,0.26,0.32,0,0.363,0.303,0.53,0,0.536,0.252,0.26,0,0.321,0.347,0.05,0,0.065,0.421,0.32,0,0,0.282,0.41,0,0.423,0.317,0.39,0,0.357
23803,20090919,-89.43,34.82,0.298,0.58,0,0.506,0.334,0.75,0,0.679,0.286,0.5,0,0.464,0.367,0.3,0,0.208,0.422,0.34,0,0.089,0.316,0.66,0,0.565,0.341,0.67,0,0.5
23803,20090920,-89.43,34.82,0.326,0.77,0,0.649,0.357,0.91,0,0.821,0.318,0.72,0,0.607,0.385,0.54,0,0.351,0.423,0.37,0,0.232,0.341,0.84,0,0.708,0.362,0.9,0,0.643
23803,20090921,-89.43,34.82,0.368,1.07,0,0.792,0.391,1.15,0,0.964,0.354,0.96,0,0.75,0.405,0.8,0,0.494,0.424,0.39,0,0.369,0.379,1.12,0,0.851,0.388,1.19,0,0.786
23803,20090922,-89.43,34.82,0.394,1.24,0,0.935,0.412,1.29,0,1,0.385,1.17,0,0.893,0.425,1.05,0,0.637,0.426,0.42,0,0.512,0.403,1.28,0,0.994,0.408,1.4,0,0.929
23803,20090923,-89.43,34.82,0.412,1.35,0,1,0.428,1.37,0,1,0.408,1.3,0,1,0.444,1.29,0,0.78,0.427,0.46,0,0.655,0.42,1.38,0,1,0.424,1.55,0,1
23803,20090924,-89.43,34.82,0.434,1.48,0,1,0.443,1.44,0,1,0.421,1.34,0,1,0.462,1.52,0,0.923,0.428,0.5,0,0.798,0.438,1.49,0,1,0.438,1.66,0,1
23803,20090925,-89.43,34.82,0.451,1.58,0,1,0.458,1.5,0,1,0.432,1.38,0,1,0.474,1.65,0,1,0.43,0.53,0,0.94,0.454,1.57,0,1,0.449,1.74,0,1
23803,20090926,-89.43,34.82,0.455,1.57,0,1,0.461,1.48,0,1,0.436,1.36,0,1,0.474,1.65,0,1,0.43,0.55,0,0.994,0.458,1.56,0,1,0.451,1.7,0,1
23803,20090927,-89.43,34.82,0.472,1.63,0,1,0.475,1.53,0,1,0.441,1.35,0,1,0.475,1.65,0,1,0.431,0.57,0,0.994,0.473,1.62,0,1,0.459,1.72,0,1
23803,20090928,-89.43,34.82,0.46,1.51,0,1,0.468,1.43,0,1,0.44,1.29,0,1,0.473,1.62,0,1,0.431,0.58,0,1,0.464,1.51,0,1,0.455,1.61,0,1
23803,20090929,-89.43,34.82,0.456,1.44,0,1,0.463,1.36,0,1,0.437,1.23,0,1,0.466,1.53,0,1,0.432,0.59,0,1,0.459,1.44,0,1,0.451,1.52,0,1
23803,20090930,-89.43,34.82,0.449,1.36,0,1,0.455,1.28,0,1,0.433,1.16,0,1,0.459,1.42,0,1,0.432,0.61,0,1,0.452,1.36,0,1,0.446,1.43,0,1
23803,20091001,-89.43,34.82,0.43,1.19,0,1,0.441,1.15,0,1,0.423,1.06,0,1,0.45,1.31,0,1,0.432,0.62,0,1,0.435,1.21,0,1,0.435,1.29,0,1
23803,20091002,-89.43,34.82,0.412,1.04,0,1,0.426,1.02,0,1,0.413,0.96,0,1,0.44,1.18,0,1,0.432,0.63,0,1,0.419,1.08,0,1,0.425,1.15,0,1
23803,20091003,-89.43,34.82,0.391,0.87,0,1,0.41,0.89,0,1,0.4,0.84,0,1,0.429,1.02,0,1,0.432,0.63,0,1,0.4,0.92,0,1,0.412,1,0,1
23803,20091004,-89.43,34.82,0.366,0.7,0,1,0.39,0.74,0,1,0.387,0.72,0,1,0.417,0.85,0,0.994,0.432,0.64,0,1,0.378,0.76,0,1,0.398,0.85,0,1
23803,20091005,-89.43,34.82,0.373,0.71,0,1,0.393,0.74,0,1,0.386,0.67,0,1,0.415,0.81,0,0.958,0.432,0.64,0,1,0.383,0.77,0,1,0.399,0.83,0,1
23803,20091006,-89.43,34.82,0.378,0.72,0,1,0.398,0.76,0,1,0.389,0.65,0,1,0.421,0.9,0,0.958,0.432,0.65,0,1,0.388,0.78,0,1,0.404,0.85,0,1
23803,20091007,-89.43,34.82,0.381,0.72,0,1,0.401,0.75,0,1,0.393,0.65,0,1,0.424,0.92,0,0.958,0.432,0.65,0,1,0.391,0.78,0,1,0.406,0.84,0,1
23803,20091008,-89.43,34.82,0.383,0.71,0,1,0.403,0.75,0,1,0.395,0.64,0,1,0.427,0.95,0,0.958,0.432,0.65,0,1,0.393,0.78,0,1,0.408,0.84,0,1
23803,20091009,-89.43,34.82,0.384,0.7,0,1,0.404,0.75,0,1,0.397,0.62,0,1,0.43,0.97,0,0.958,0.431,0.66,0,1,0.394,0.76,0,1,0.409,0.82,0,1
23803,20091010,-89.43,34.82,0.396,0.74,0,1,0.414,0.8,0,1,0.403,0.64,0,1,0.438,1.09,0,0.958,0.431,0.67,0,1,0.405,0.81,0,1,0.416,0.86,0,1
23803,20091011,-89.43,34.82,0.403,0.76,0,1,0.422,0.84,0,1,0.411,0.67,0,1,0.446,1.21,0,0.964,0.431,0.69,0,1,0.412,0.85,0,1,0.423,0.9,0,1
23803,20091012,-89.43,34.82,0.39,0.66,0,1,0.413,0.79,0,1,0.408,0.64,0,1,0.444,1.18,0,1,0.431,0.71,0,1,0.402,0.77,0,1,0.417,0.84,0,1
23803,20091013,-89.43,34.82,0.384,0.6,0,1,0.407,0.77,0,1,0.405,0.62,0,1,0.437,1.07,0,1,0.432,0.73,0,1,0.396,0.72,0,1,0.413,0.8,0,1
23803,20091014,-89.43,34.82,0.399,0.66,0,1,0.417,0.86,0,1,0.409,0.64,0,1,0.441,1.14,0,1,0.432,0.75,0,1,0.408,0.79,0,1,0.42,0.85,0,1
23803,20091015,-89.43,34.82,0.41,0.69,0,1,0.429,0.96,0,1,0.416,0.69,0,1,0.449,1.25,0,1,0.432,0.76,0,1,0.419,0.84,0,1,0.427,0.92,0,1
23803,20091016,-89.43,34.82,0.418,0.71,0,1,0.438,1.03,0,1,0.422,0.74,0,1,0.454,1.32,0,1,0.432,0.77,0,1,0.428,0.88,0,1,0.433,0.98,0,1
23803,20091017,-89.43,34.82,0.412,0.66,0,1,0.433,1,0,1,0.421,0.76,0,1,0.45,1.24,0,1,0.432,0.77,0,1,0.423,0.81,0,1,0.43,0.94,0,1
23803,20091018,-89.43,34.82,0.409,0.62,0,1,0.428,0.95,0,1,0.418,0.76,0,1,0.447,1.17,0,1,0.432,0.78,0,1,0.419,0.76,0,1,0.427,0.89,0,1
23803,20091019,-89.43,34.82,0.408,0.59,0,0.994,0.427,0.91,0,1,0.416,0.76,0,1,0.446,1.13,0,1,0.431,0.77,0,1,0.418,0.72,0,1,0.426,0.86,0,1
23803,20091020,-89.43,34.82,0.406,0.55,0,0.849,0.423,0.85,0,1,0.412,0.74,0,1,0.444,1.08,0,1,0.431,0.75,0,1,0.414,0.67,0,0.982,0.423,0.8,0,1
23803,20091021,-89.43,34.82,0.387,0.44,0,0.708,0.409,0.7,0,0.994,0.403,0.66,0,1,0.437,0.93,0,1,0.43,0.74,0,1,0.398,0.53,0,0.863,0.413,0.68,0,1
23803,20091022,-89.43,34.82,0.373,0.35,0,0.565,0.395,0.55,0,0.875,0.394,0.58,0,1,0.427,0.75,0,1,0.43,0.74,0,1,0.384,0.42,0,0.72,0.404,0.55,0,1
23803,20091023,-89.43,34.82,0.372,0.35,0,0.47,0.39,0.48,0,0.78,0.39,0.55,0,1,0.422,0.64,0,1,0.43,0.73,0,1,0.381,0.4,0,0.637,0.401,0.5,0,0.982
23803,20091024,-89.43,34.82,0.382,0.43,0,0.47,0.399,0.55,0,0.78,0.393,0.58,0,1,0.425,0.65,0,1,0.43,0.73,0,1,0.39,0.49,0,0.637,0.406,0.54,0,0.982
23803,20091025,-89.43,34.82,0.385,0.45,0,0.47,0.401,0.57,0,0.78,0.396,0.6,0,1,0.425,0.61,0,1,0.43,0.72,0,1,0.393,0.52,0,0.637,0.407,0.56,0,0.982
23803,20091026,-89.43,34.82,0.387,0.47,0,0.476,0.402,0.57,0,0.78,0.398,0.61,0,1,0.424,0.58,0,1,0.43,0.72,0,1,0.394,0.53,0,0.637,0.408,0.56,0,0.982
23803,20091027,-89.43,34.82,0.388,0.47,0,0.607,0.403,0.57,0,0.78,0.398,0.61,0,1,0.424,0.56,0,1,0.43,0.72,0,1,0.395,0.54,0,0.655,0.409,0.57,0,0.982
23803,20091028,-89.43,34.82,0.407,0.62,0,0.75,0.417,0.73,0,0.786,0.407,0.71,0,1,0.43,0.62,0,1,0.431,0.72,0,1,0.412,0.7,0,0.774,0.418,0.68,0,0.982
23803,20091029,-89.43,34.82,0.418,0.71,0,0.893,0.428,0.85,0,0.905,0.414,0.8,0,1,0.435,0.67,0,1,0.431,0.71,0,1,0.423,0.8,0,0.917,0.425,0.77,0,0.982
23803,20091030,-89.43,34.82,0.419,0.72,0,0.988,0.433,0.91,0,1,0.417,0.84,0,1,0.434,0.65,0,1,0.431,0.7,0,1,0.426,0.83,0,1,0.427,0.79,0,1
23803,20091031,-89.43,34.82,0.426,0.8,0,0.988,0.435,0.97,0,1,0.419,0.86,0,1,0.435,0.64,0,1,0.431,0.69,0,1,0.43,0.88,0,1,0.429,0.82,0,1
23803,20091101,-89.43,34.82,0.437,0.9,0,0.988,0.446,1.09,0,1,0.423,0.9,0,1,0.441,0.69,0,1,0.431,0.68,0,1,0.441,0.98,0,1,0.435,0.89,0,1
23803,20091102,-89.43,34.82,0.441,0.93,0,0.988,0.449,1.13,0,1,0.426,0.93,0,1,0.442,0.69,0,1,0.431,0.66,0,1,0.445,1.01,0,1,0.438,0.9,0,1
23803,20091103,-89.43,34.82,0.443,0.94,0,0.982,0.451,1.14,0,1,0.429,0.94,0,1,0.442,0.67,0,0.97,0.431,0.64,0,1,0.447,1.02,0,1,0.439,0.9,0,1
23803,20091104,-89.43,34.82,0.426,0.79,0,0.839,0.437,0.98,0,0.923,0.421,0.84,0,1,0.437,0.59,0,0.851,0.43,0.62,0,1,0.432,0.87,0,0.881,0.43,0.78,0,0.887
23803,20091105,-89.43,34.82,0.417,0.7,0,0.696,0.427,0.86,0,0.78,0.415,0.75,0,0.929,0.434,0.53,0,0.851,0.431,0.6,0,1,0.422,0.77,0,0.738,0.425,0.7,0,0.744
23803,20091106,-89.43,34.82,0.41,0.63,0,0.554,0.418,0.74,0,0.637,0.409,0.67,0,0.786,0.434,0.51,0,0.851,0.431,0.59,0,1,0.414,0.67,0,0.595,0.42,0.62,0,0.601
23803,20091107,-89.43,34.82,0.39,0.43,0,0.411,0.403,0.55,0,0.494,0.399,0.53,0,0.643,0.428,0.43,0,0.815,0.431,0.57,0,1,0.396,0.48,0,0.452,0.41,0.48,0,0.458
23803,20091108,-89.43,34.82,0.373,0.26,0,0.268,0.388,0.36,0,0.351,0.389,0.4,0,0.5,0.423,0.35,0,0.738,0.431,0.55,0,1,0.381,0.31,0,0.31,0.401,0.35,0,0.315
23803,20091109,-89.43,34.82,0.366,0.18,0,0.125,0.382,0.27,0,0.208,0.383,0.31,0,0.357,0.421,0.31,0,0.601,0.431,0.52,0,1,0.374,0.22,0,0.167,0.397,0.27,0,0.173
23803,20091110,-89.43,34.82,0.362,0.12,0,0,0.38,0.22,0,0.065,0.379,0.24,0,0.214,0.417,0.25,0,0.488,0.431,0.48,0,0.988,0.371,0.17,0,0.024,0.394,0.22,0,0.03
23803,20091111,-89.43,34.82,0.358,0.07,0,0,0.378,0.18,0,0,0.376,0.19,0,0.071,0.413,0.17,0,0.464,0.431,0.44,0,0.94,0.368,0.13,0,0,0.391,0.18,0,0
23803,20091112,-89.43,34.82,0.355,0.02,0,0,0.376,0.15,0,0,0.375,0.14,0,0,0.408,0.07,0,0.321,0.431,0.4,0,0.833,0.366,0.08,0,0,0.389,0.13,0,0
23803,20091113,-89.43,34.82,0.353,-0.02,0,0,0.375,0.11,0,0,0.373,0.1,0,0,0.402,-0.03,0,0.179,0.43,0.36,0,0.702,0.364,0.04,0,0,0.387,0.08,0,0
23803,20091114,-89.43,34.82,0.351,-0.06,0,0,0.374,0.08,0,0,0.371,0.06,0,0,0.396,-0.15,0,0.071,0.43,0.32,0,0.56,0.362,0.01,0,0,0.384,0.04,0,0
23803,20091115,-89.43,34.82,0.349,-0.11,0,0,0.373,0.05,0,0,0.37,0.03,0,0,0.391,-0.27,0.006,0.006,0.43,0.28,0,0.417,0.361,-0.03,0,0,0.382,-0.01,0,0
23803,20091116,-89.43,34.82,0.347,-0.15,0,0,0.371,0.01,0,0,0.369,0,0,0,0.387,-0.36,0.089,0,0.43,0.25,0,0.274,0.359,-0.07,0,0,0.381,-0.05,0,0
23803,20091117,-89.43,34.82,0.347,-0.17,0.006,0,0.371,-0.01,0,0,0.369,-0.02,0,0,0.385,-0.43,0.185,0,0.43,0.22,0,0.143,0.359,-0.08,0,0,0.38,-0.07,0,0
23803,20091118,-89.43,34.82,0.347,-0.19,0.006,0,0.371,-0.02,0,0,0.369,-0.02,0,0,0.387,-0.41,0.185,0,0.43,0.2,0,0.048,0.359,-0.1,0,0,0.381,-0.07,0,0
23803,20091119,-89.43,34.82,0.347,-0.21,0.006,0,0.37,-0.04,0,0,0.369,-0.02,0,0,0.391,-0.34,0.185,0,0.43,0.17,0,0.012,0.359,-0.11,0,0,0.382,-0.06,0,0
23803,20091120,-89.43,34.82,0.348,-0.23,0.006,0,0.37,-0.06,0,0,0.369,-0.02,0,0,0.394,-0.32,0.185,0,0.43,0.16,0,0,0.359,-0.12,0,0,0.382,-0.07,0,0
23803,20091121,-89.43,34.82,0.348,-0.25,0.024,0,0.37,-0.08,0,0,0.37,-0.03,0,0,0.395,-0.33,0.28,0,0.43,0.15,0,0,0.359,-0.14,0,0,0.382,-0.08,0,0
23803,20091122,-89.43,34.82,0.348,-0.27,0.149,0,0.37,-0.1,0,0,0.37,-0.04,0,0,0.396,-0.34,0.417,0,0.43,0.14,0,0,0.359,-0.16,0,0,0.383,-0.1,0,0
23803,20091123,-89.43,34.82,0.349,-0.28,0.262,0,0.371,-0.11,0,0,0.37,-0.04,0,0,0.396,-0.36,0.476,0,0.43,0.12,0,0,0.36,-0.18,0,0,0.383,-0.11,0,0
23803,20091124,-89.43,34.82,0.348,-0.31,0.363,0,0.37,-0.14,0,0,0.37,-0.07,0,0,0.397,-0.38,0.524,0,0.43,0.11,0,0,0.359,-0.21,0,0,0.383,-0.15,0,0
23803,20091125,-89.43,34.82,0.348,-0.33,0.429,0,0.37,-0.16,0,0,0.369,-0.09,0,0,0.394,-0.47,0.667,0,0.43,0.09,0,0,0.359,-0.24,0,0,0.382,-0.19,0,0
23803,20091126,-89.43,34.82,0.349,-0.35,0.536,0,0.37,-0.19,0.006,0,0.369,-0.11,0,0,0.39,-0.59,0.81,0,0.43,0.08,0,0,0.359,-0.26,0.048,0,0.381,-0.24,0.006,0
23803,20091127,-89.43,34.82,0.348,-0.38,0.679,0,0.369,-0.21,0.018,0,0.368,-0.14,0,0,0.388,-0.66,0.952,0,0.43,0.06,0,0,0.359,-0.3,0.185,0,0.381,-0.28,0.06,0
23803,20091128,-89.43,34.82,0.349,-0.4,0.804,0,0.369,-0.24,0.048,0,0.368,-0.16,0,0,0.387,-0.72,1,0,0.429,0.04,0,0,0.359,-0.33,0.327,0,0.38,-0.31,0.202,0
23803,20091129,-89.43,34.82,0.349,-0.42,0.821,0,0.369,-0.26,0.149,0,0.368,-0.19,0,0,0.386,-0.77,1,0,0.429,0.02,0,0,0.359,-0.35,0.47,0,0.38,-0.35,0.345,0
23803,20091130,-89.43,34.82,0.366,-0.22,0.732,0.113,0.381,-0.04,0.173,0.113,0.376,-0.04,0,0.113,0.394,-0.55,0.887,0.107,0.43,0.03,0,0.018,0.374,-0.14,0.494,0.113,0.389,-0.16,0.369,0.113
23803,20091201,-89.43,34.82,0.388,0.05,0.625,0.256,0.399,0.29,0.173,0.256,0.389,0.2,0,0.256,0.407,-0.19,0.744,0.25,0.431,0.05,0,0.131,0.393,0.15,0.494,0.256,0.403,0.11,0.369,0.256
23803,20091202,-89.43,34.82,0.398,0.17,0.56,0.351,0.409,0.47,0.173,0.399,0.397,0.35,0,0.399,0.415,0.03,0.601,0.393,0.432,0.08,0,0.196,0.404,0.29,0.494,0.399,0.411,0.25,0.369,0.399